Zurück zum Katalog

CZ-4 DEB

AktivSSO
NORAD 20793·DEBRIS·🇨🇳 China

Gestartet Sep 3, 1990 von Taiyuan Satellite Launch Center

Loading…

Nächste Überflüge (nächste 24 Stunden)

TLE

AktuellSource: Space-Track

Epoche: Sep 13, 2026, 22:44 UTC

1 20793U 90081F   26256.94788760  .00000525  00000-0  26171-3 0  9991
2 20793  98.7825 244.3614 0020685  80.8855 279.4661 14.21079442856098

Verfolge CZ-4 DEB in Echtzeit mit AllMySat

Download on the App Store